7 * 24
多渠道服务支持
STARLINK-36485是美国SpaceX公司星链(Starlink)卫星互联网项目的一员,于2026年1月4日成功发射,NORAD编号为67312。星链项目旨在通过近地轨道卫星星座,为全球提供高速宽带互联网服务,尤其改善偏远地区网络覆盖。该卫星目前运行在轨道上,是星链持续拓展星座规模、完善全球网络覆盖布局的最新组成部分,进一步巩固了SpaceX在低轨卫星互联网领域的领先地位。
美国
(US)
| 数据来源 | 国际轨道数据 |
| 星历时间: | 2026-03-13T08:38:33+0800 1天前 查看轨道信息 |
| 半长轴: | 6861.163km |
| 偏心率: | 0.0001593 |
| 轨道倾角: | 43.003° |
| 近地点辐角 | 272.782° |
| 升交点赤经 | 306.044° |
| 平近点角 | 87.285° |
| 近地点: | 481.933km |
| 远地点: | 484.119km |
| 周期: | 94.266分钟 |
| 每日圈数: | 15.275878 |